McGhee Tyson Airport Knoxville US
ICAO: KTYS
IATA: TYS
Category: Large
Scheduled Services: Yes

Elevation: 981 ft
TransAlt. 18000 ft.

Airport Communications:
KNOXVILLE APP/DEP:36.08
KNOXVILLE APP/DEP:118
ATIS:128.35
CLNC DEL:121.65
KNOXVILLE GND:121.9
ARNG OPS:41.5
PTD:30.3
NASHVILLE RDO:122.2
KNOXVILLE TWR:121.2
UNICOM:122.95

KTYS Zoom In..

Runways:

(A) RW 05L length 9005 ft width 150 ft
ILS 110.30 / hdg 48

(B) RW 05R length 9000 ft width 150 ft
---- / hdg 48

(C) RW 23L length 9000 ft width 150 ft
---- / hdg 228

(D) RW 23R length 9005 ft width 150 ft
ILS 111.70 / hdg 228

Location; KTYS
Day. 19 / Time. 21.06 Zulu
* Altimeter: 29.93
* Temperature: 31° c. 87.8°f.
* Wind from: KTY° Speed S kn.
Dewpoint: 21° c.
Visibility: 10 Statute Miles.
Clouds: Scattered 5500 ft.
Clouds: Scattered 13000 ft.
Clouds: Broken 25000 ft.
Conditions: Thunderstorm.

KTYS 192106Z 32006KT 10SM VCTS SCT055CB SCT130 BKN250 31/21 A2993 RMK AO2 LTG DSNT E AND SW OCNL LTGCG VC SSW TS VC SSW MOV SLWLY NE T03110206


Wind From KTY°
Speed S kn.

 
 
jpsmedia.com for Web Design worldairports.se 2018   terms of use